Time,TemperatureF,DewpointF,PressureIn,WindDirection,WindDirectionDegrees,WindSpeedMPH,WindSpeedGustMPH,Humidity,HourlyPrecipIn,Conditions,Clouds,dailyrainin,SoftwareType,DateUTC
2013-10-04 00:00:00,66.0,61.5,29.89,SE,124,0.0,3.6,86,0.01,,---,1.38,VWS V14.01,2013-10-04 05:00:00,
2013-10-04 00:01:00,66.0,61.5,29.89,SE,124,0.0,0.0,86,0.01,,---,0.00,VWS V14.01,2013-10-04 05:01:00,
2013-10-04 00:03:00,65.9,61.5,29.89,ESE,120,0.0,0.0,86,0.01,,---,0.00,VWS V14.01,2013-10-04 05:03:00,
2013-10-04 00:05:00,65.9,61.5,29.89,ESE,122,0.0,0.0,86,0.01,,---,0.00,VWS V14.01,2013-10-04 05:05:00,
2013-10-04 00:06:00,65.9,61.5,29.89,ESE,122,0.0,0.0,86,0.01,,---,0.00,VWS V14.01,2013-10-04 05:06:00,
2013-10-04 00:10:00,65.9,61.5,29.89,ESE,120,0.0,3.6,86,0.01,,---,0.00,VWS V14.01,2013-10-04 05:10:00,
2013-10-04 00:11:00,65.9,61.5,29.88,ESE,120,0.0,0.0,86,0.01,,---,0.00,VWS V14.01,2013-10-04 05:11:00,
2013-10-04 00:16:00,65.7,61.3,29.88,ESE,122,0.0,1.8,86,0.01,,---,0.00,VWS V14.01,2013-10-04 05:16:00,
2013-10-04 00:19:00,65.7,61.3,29.88,ESE,120,0.0,1.8,86,0.01,,---,0.00,VWS V14.01,2013-10-04 05:19:00,
2013-10-04 00:24:00,65.6,61.2,29.87,ESE,120,0.0,0.0,86,0.01,,---,0.00,VWS V14.01,2013-10-04 05:24:00,
2013-10-04 00:31:00,65.6,61.5,29.87,SE,124,0.0,1.8,86,0.01,,---,0.00,VWS V14.01,2013-10-04 05:31:00,
2013-10-04 00:36:00,65.5,61.4,29.87,SE,124,0.0,0.0,86,0.01,,---,0.00,VWS V14.01,2013-10-04 05:36:00,
2013-10-04 00:41:00,65.5,61.4,29.87,SE,124,0.0,0.0,86,0.01,,---,0.00,VWS V14.01,2013-10-04 05:41:00,
2013-10-04 00:46:00,65.5,61.4,29.86,ESE,105,0.0,1.8,86,0.00,,---,0.00,VWS V14.01,2013-10-04 05:46:00,
2013-10-04 00:51:00,65.4,61.3,29.86,ESE,104,0.0,0.0,86,0.00,,---,0.00,VWS V14.01,2013-10-04 05:51:00,
2013-10-04 00:56:00,65.4,61.3,29.86,ESE,110,0.0,1.8,86,0.00,,---,0.00,VWS V14.01,2013-10-04 05:56:00,
2013-10-04 01:01:00,65.5,61.4,29.86,East,88,0.0,0.0,86,0.00,,---,0.00,VWS V14.01,2013-10-04 06:01:00,
2013-10-04 01:06:00,65.5,61.4,29.87,East,88,0.0,0.0,86,0.00,,---,0.00,VWS V14.01,2013-10-04 06:06:00,
2013-10-04 01:11:00,65.5,61.4,29.87,East,89,0.0,0.0,86,0.00,,---,0.00,VWS V14.01,2013-10-04 06:11:00,
2013-10-04 01:16:00,65.6,61.5,29.88,ESE,112,0.0,0.0,86,0.00,,---,0.00,VWS V14.01,2013-10-04 06:16:00,
2013-10-04 01:21:00,65.7,61.6,29.88,ESE,111,0.0,0.0,86,0.00,,---,0.00,VWS V14.01,2013-10-04 06:21:00,
2013-10-04 01:26:00,65.8,61.7,29.88,ESE,110,0.0,0.0,86,0.00,,---,0.00,VWS V14.01,2013-10-04 06:26:00,
2013-10-04 01:31:00,65.9,61.8,29.88,ESE,110,0.0,0.0,86,0.00,,---,0.00,VWS V14.01,2013-10-04 06:31:00,
2013-10-04 01:36:00,65.9,61.8,29.88,ESE,110,0.0,0.0,86,0.00,,---,0.00,VWS V14.01,2013-10-04 06:36:00,
2013-10-04 01:41:00,65.9,61.8,29.87,ESE,110,0.0,0.0,86,0.00,,---,0.00,VWS V14.01,2013-10-04 06:41:00,
2013-10-04 01:46:00,65.9,61.8,29.87,SE,126,0.0,0.0,86,0.00,,---,0.00,VWS V14.01,2013-10-04 06:46:00,
2013-10-04 01:51:00,65.9,61.8,29.87,SE,141,0.0,0.0,86,0.00,,---,0.00,VWS V14.01,2013-10-04 06:51:00,
2013-10-04 01:56:00,65.9,61.8,29.87,ESE,123,0.0,0.0,86,0.00,,---,0.00,VWS V14.01,2013-10-04 06:56:00,
2013-10-04 02:01:00,66.0,61.9,29.87,SW,233,3.6,5.4,86,0.00,,---,0.00,VWS V14.01,2013-10-04 07:01:00,
2013-10-04 02:06:00,66.1,61.7,29.86,SSW,212,0.0,3.6,86,0.00,,---,0.00,VWS V14.01,2013-10-04 07:06:00,
2013-10-04 02:11:00,66.2,61.8,29.86,SSW,203,0.0,3.6,86,0.00,,---,0.00,VWS V14.01,2013-10-04 07:11:00,
2013-10-04 02:16:00,66.3,61.8,29.87,SW,234,1.8,1.8,86,0.00,,---,0.00,VWS V14.01,2013-10-04 07:16:00,
2013-10-04 02:21:00,66.6,62.1,29.87,WSW,240,1.8,1.8,86,0.00,,---,0.00,VWS V14.01,2013-10-04 07:21:00,
2013-10-04 02:26:00,66.8,62.3,29.87,SW,217,3.6,3.6,86,0.00,,---,0.00,VWS V14.01,2013-10-04 07:26:00,
2013-10-04 02:31:00,67.0,62.5,29.87,SE,129,0.0,1.8,86,0.00,,---,0.00,VWS V14.01,2013-10-04 07:31:00,
2013-10-04 02:36:00,67.2,62.7,29.88,SSW,194,1.8,3.6,86,0.00,,---,0.00,VWS V14.01,2013-10-04 07:36:00,
2013-10-04 02:41:00,67.2,62.7,29.87,SW,218,0.0,1.8,86,0.00,,---,0.00,VWS V14.01,2013-10-04 07:41:00,
2013-10-04 02:46:00,67.3,62.8,29.87,East,101,0.0,1.8,86,0.00,,---,0.00,VWS V14.01,2013-10-04 07:46:00,
2013-10-04 02:51:00,67.3,62.8,29.86,SW,228,0.0,1.8,86,0.00,,---,0.00,VWS V14.01,2013-10-04 07:51:00,
2013-10-04 02:56:00,67.5,63.3,29.86,SW,219,1.8,3.6,86,0.00,,---,0.00,VWS V14.01,2013-10-04 07:56:00,
2013-10-04 03:01:00,67.6,63.4,29.85,SSW,205,1.8,1.8,86,0.00,,---,0.00,VWS V14.01,2013-10-04 08:01:00,
2013-10-04 03:06:00,67.9,63.7,29.86,SW,225,1.8,1.8,86,0.00,,---,0.00,VWS V14.01,2013-10-04 08:06:00,
2013-10-04 03:11:00,68.1,63.6,29.86,SW,233,1.8,3.6,86,0.00,,---,0.00,VWS V14.01,2013-10-04 08:11:00,
2013-10-04 03:16:00,68.2,63.7,29.88,SSW,201,0.0,0.0,86,0.00,,---,0.00,VWS V14.01,2013-10-04 08:16:00,
2013-10-04 03:21:00,68.2,63.7,29.89,West,262,0.0,0.0,86,0.00,,---,0.00,VWS V14.01,2013-10-04 08:21:00,
2013-10-04 03:26:00,68.2,63.7,29.89,North,11,0.0,0.0,86,0.00,,---,0.00,VWS V14.01,2013-10-04 08:26:00,
2013-10-04 03:31:00,68.1,63.6,29.89,NE,43,1.8,1.8,86,0.00,,---,0.00,VWS V14.01,2013-10-04 08:31:00,
2013-10-04 03:36:00,68.0,63.5,29.89,SE,129,0.0,0.0,86,0.00,,---,0.00,VWS V14.01,2013-10-04 08:36:00,
2013-10-04 03:41:00,67.9,63.4,29.89,NE,44,0.0,1.8,86,0.00,,---,0.00,VWS V14.01,2013-10-04 08:41:00,
2013-10-04 03:46:00,67.9,63.7,29.89,NE,44,0.0,0.0,86,0.00,,---,0.00,VWS V14.01,2013-10-04 08:46:00,
2013-10-04 03:51:00,67.8,63.6,29.89,SW,226,0.0,0.0,86,0.00,,---,0.00,VWS V14.01,2013-10-04 08:51:00,
2013-10-04 03:56:00,67.7,63.5,29.89,SW,226,0.0,0.0,86,0.00,,---,0.00,VWS V14.01,2013-10-04 08:56:00,
2013-10-04 04:01:00,67.7,63.5,29.89,SW,226,0.0,0.0,86,0.00,,---,0.00,VWS V14.01,2013-10-04 09:01:00,
2013-10-04 04:06:00,67.6,63.4,29.90,SW,220,0.0,0.0,86,0.00,,---,0.00,VWS V14.01,2013-10-04 09:06:00,
2013-10-04 04:11:00,67.6,63.7,29.90,SE,124,0.0,0.0,87,0.00,,---,0.00,VWS V14.01,2013-10-04 09:11:00,
2013-10-04 04:16:00,67.6,63.7,29.90,SE,124,0.0,0.0,87,0.00,,---,0.00,VWS V14.01,2013-10-04 09:16:00,
2013-10-04 04:21:00,67.6,63.7,29.90,SE,124,0.0,0.0,87,0.00,,---,0.00,VWS V14.01,2013-10-04 09:21:00,
2013-10-04 04:26:00,67.6,63.7,29.90,SE,124,0.0,0.0,87,0.00,,---,0.00,VWS V14.01,2013-10-04 09:26:00,
2013-10-04 04:31:00,67.6,63.7,29.90,SE,124,0.0,0.0,87,0.00,,---,0.00,VWS V14.01,2013-10-04 09:31:00,
2013-10-04 04:36:00,67.7,63.8,29.90,SE,124,0.0,0.0,87,0.00,,---,0.00,VWS V14.01,2013-10-04 09:36:00,
2013-10-04 04:41:00,67.7,63.8,29.90,ESE,114,0.0,0.0,87,0.00,,---,0.00,VWS V14.01,2013-10-04 09:41:00,
2013-10-04 04:46:00,67.8,63.9,29.90,ESE,114,0.0,0.0,87,0.00,,---,0.00,VWS V14.01,2013-10-04 09:46:00,
2013-10-04 04:51:00,67.8,63.9,29.90,ESE,114,0.0,0.0,87,0.00,,---,0.00,VWS V14.01,2013-10-04 09:51:00,
2013-10-04 04:56:00,67.8,63.9,29.90,ESE,115,0.0,0.0,87,0.00,,---,0.00,VWS V14.01,2013-10-04 09:56:00,
2013-10-04 05:01:00,67.9,64.0,29.90,ESE,117,0.0,0.0,87,0.00,,---,0.00,VWS V14.01,2013-10-04 10:01:00,
2013-10-04 05:06:00,67.9,64.0,29.90,ESE,113,0.0,0.0,87,0.00,,---,0.00,VWS V14.01,2013-10-04 10:06:00,
2013-10-04 05:11:00,67.9,64.0,29.90,SSW,206,0.0,0.0,87,0.00,,---,0.00,VWS V14.01,2013-10-04 10:11:00,
2013-10-04 05:16:00,67.9,64.0,29.90,SE,131,0.0,0.0,87,0.00,,---,0.00,VWS V14.01,2013-10-04 10:16:00,
2013-10-04 05:21:00,68.0,64.1,29.90,SE,134,0.0,0.0,87,0.00,,---,0.00,VWS V14.01,2013-10-04 10:21:00,
2013-10-04 05:26:00,68.0,64.1,29.90,SW,227,0.0,0.0,87,0.00,,---,0.00,VWS V14.01,2013-10-04 10:26:00,
2013-10-04 05:31:00,68.0,64.1,29.90,SW,224,0.0,0.0,87,0.00,,---,0.00,VWS V14.01,2013-10-04 10:31:00,
2013-10-04 05:36:00,68.0,64.1,29.91,SW,215,0.0,0.0,87,0.00,,---,0.00,VWS V14.01,2013-10-04 10:36:00,
2013-10-04 05:41:00,68.0,64.1,29.91,SW,221,0.0,0.0,87,0.00,,---,0.00,VWS V14.01,2013-10-04 10:41:00,
2013-10-04 05:46:00,68.0,64.1,29.91,ESE,108,0.0,0.0,87,0.00,,---,0.00,VWS V14.01,2013-10-04 10:46:00,
2013-10-04 05:51:00,68.0,64.1,29.91,SW,214,0.0,0.0,87,0.00,,---,0.00,VWS V14.01,2013-10-04 10:51:00,
2013-10-04 05:55:00,68.1,64.2,29.91,East,96,0.0,0.0,87,0.00,,---,0.00,VWS V14.01,2013-10-04 10:55:00,
2013-10-04 06:00:00,68.2,64.3,29.91,ESE,114,0.0,0.0,87,0.00,,---,0.00,VWS V14.01,2013-10-04 11:00:00,
2013-10-04 06:05:00,68.2,64.3,29.91,ESE,114,0.0,0.0,87,0.00,,---,0.00,VWS V14.01,2013-10-04 11:05:00,
2013-10-04 06:10:00,68.1,64.2,29.91,ESE,112,0.0,0.0,87,0.00,,---,0.00,VWS V14.01,2013-10-04 11:10:00,
2013-10-04 06:15:00,68.1,64.2,29.91,ESE,114,0.0,0.0,87,0.00,,---,0.00,VWS V14.01,2013-10-04 11:15:00,
2013-10-04 06:20:00,68.1,64.2,29.91,ESE,114,0.0,0.0,87,0.00,,---,0.00,VWS V14.01,2013-10-04 11:20:00,
2013-10-04 06:25:00,68.0,64.1,29.92,ESE,117,0.0,0.0,87,0.00,,---,0.00,VWS V14.01,2013-10-04 11:25:00,
2013-10-04 06:30:00,68.0,64.1,29.92,ESE,117,0.0,0.0,87,0.00,,---,0.00,VWS V14.01,2013-10-04 11:30:00,
2013-10-04 06:35:00,68.1,64.2,29.92,ESE,117,0.0,0.0,87,0.00,,---,0.00,VWS V14.01,2013-10-04 11:35:00,
2013-10-04 06:40:00,68.1,64.2,29.92,ESE,117,0.0,0.0,87,0.00,,---,0.00,VWS V14.01,2013-10-04 11:40:00,
2013-10-04 06:45:00,68.1,64.2,29.92,ESE,107,0.0,0.0,87,0.00,,---,0.00,VWS V14.01,2013-10-04 11:45:00,
2013-10-04 06:50:00,68.1,64.5,29.92,SW,214,0.0,0.0,88,0.00,,---,0.00,VWS V14.01,2013-10-04 11:50:00,
2013-10-04 06:55:00,68.2,64.6,29.92,ESE,120,0.0,0.0,88,0.00,,---,0.00,VWS V14.01,2013-10-04 11:55:00,
2013-10-04 07:00:00,68.2,64.3,29.92,ESE,120,0.0,0.0,87,0.00,,---,0.00,VWS V14.01,2013-10-04 12:00:00,
2013-10-04 07:05:00,68.2,64.3,29.92,ESE,105,0.0,0.0,87,0.00,,---,0.00,VWS V14.01,2013-10-04 12:05:00,
2013-10-04 07:10:00,68.2,64.3,29.92,ESE,120,1.8,5.4,87,0.00,,---,0.00,VWS V14.01,2013-10-04 12:10:00,
2013-10-04 07:15:00,68.2,64.3,29.92,ESE,120,0.0,1.8,87,0.00,,---,0.00,VWS V14.01,2013-10-04 12:15:00,
2013-10-04 07:20:00,68.1,64.2,29.92,ESE,112,0.0,3.6,87,0.00,,---,0.00,VWS V14.01,2013-10-04 12:20:00,
2013-10-04 07:25:00,68.1,64.2,29.92,ESE,110,0.0,1.8,87,0.00,,---,0.00,VWS V14.01,2013-10-04 12:25:00,
2013-10-04 07:30:00,68.1,64.5,29.92,ESE,108,0.0,1.8,88,0.00,,---,0.00,VWS V14.01,2013-10-04 12:30:00,
2013-10-04 07:35:00,68.1,64.5,29.92,ESE,107,0.0,0.0,88,0.00,,---,0.00,VWS V14.01,2013-10-04 12:35:00,
2013-10-04 07:40:00,68.0,64.4,29.92,ESE,108,0.0,0.0,88,0.00,,---,0.00,VWS V14.01,2013-10-04 12:40:00,
2013-10-04 07:45:00,68.0,64.4,29.92,ESE,115,0.0,1.8,88,0.00,,---,0.00,VWS V14.01,2013-10-04 12:45:00,
2013-10-04 07:50:00,68.0,64.4,29.92,ESE,115,0.0,0.0,88,0.00,,---,0.00,VWS V14.01,2013-10-04 12:50:00,
2013-10-04 07:55:00,68.0,64.4,29.93,ESE,115,0.0,1.8,88,0.00,,---,0.00,VWS V14.01,2013-10-04 12:55:00,
2013-10-04 08:00:00,68.0,64.4,29.93,ESE,115,0.0,1.8,88,0.00,,---,0.00,VWS V14.01,2013-10-04 13:00:00,
2013-10-04 08:05:00,68.0,64.4,29.93,ESE,114,0.0,0.0,88,0.00,,---,0.00,VWS V14.01,2013-10-04 13:05:00,
2013-10-04 08:10:00,68.0,64.4,29.93,ESE,114,0.0,1.8,88,0.00,,---,0.00,VWS V14.01,2013-10-04 13:10:00,
2013-10-04 08:15:00,68.0,64.4,29.93,ESE,116,0.0,0.0,88,0.00,,---,0.00,VWS V14.01,2013-10-04 13:15:00,
2013-10-04 08:20:00,68.0,64.4,29.93,ESE,115,0.0,0.0,88,0.00,,---,0.00,VWS V14.01,2013-10-04 13:20:00,
2013-10-04 08:25:00,68.1,64.5,29.93,ESE,115,0.0,0.0,88,0.00,,---,0.00,VWS V14.01,2013-10-04 13:25:00,
2013-10-04 08:30:00,68.1,64.5,29.93,ESE,116,0.0,0.0,88,0.00,,---,0.00,VWS V14.01,2013-10-04 13:30:00,
2013-10-04 08:35:00,68.1,64.5,29.93,ESE,115,0.0,0.0,88,0.00,,---,0.00,VWS V14.01,2013-10-04 13:35:00,
2013-10-04 08:40:00,68.2,64.6,29.93,ESE,115,0.0,0.0,88,0.00,,---,0.00,VWS V14.01,2013-10-04 13:40:00,
2013-10-04 08:45:00,68.2,64.6,29.93,SW,225,0.0,0.0,88,0.00,,---,0.00,VWS V14.01,2013-10-04 13:45:00,
2013-10-04 08:50:00,68.2,64.6,29.93,SE,141,0.0,0.0,88,0.00,,---,0.00,VWS V14.01,2013-10-04 13:50:00,
2013-10-04 08:55:00,68.2,64.6,29.93,SE,141,0.0,0.0,88,0.00,,---,0.00,VWS V14.01,2013-10-04 13:55:00,
2013-10-04 09:00:00,68.3,64.7,29.93,SE,141,0.0,0.0,88,0.00,,---,0.00,VWS V14.01,2013-10-04 14:00:00,
2013-10-04 09:05:00,68.3,64.7,29.93,SE,141,0.0,0.0,88,0.00,,---,0.00,VWS V14.01,2013-10-04 14:05:00,
2013-10-04 09:10:00,68.4,64.8,29.93,East,97,0.0,1.8,88,0.00,,---,0.00,VWS V14.01,2013-10-04 14:10:00,
2013-10-04 09:15:00,68.6,65.0,29.93,East,97,0.0,1.8,88,0.00,,---,0.00,VWS V14.01,2013-10-04 14:15:00,
2013-10-04 09:20:00,68.7,65.1,29.93,East,98,0.0,1.8,88,0.00,,---,0.00,VWS V14.01,2013-10-04 14:20:00,
2013-10-04 09:25:00,68.8,65.2,29.92,ESE,122,0.0,1.8,88,0.00,,---,0.00,VWS V14.01,2013-10-04 14:25:00,
2013-10-04 09:30:00,69.0,65.4,29.92,ESE,114,0.0,5.4,88,0.00,,---,0.00,VWS V14.01,2013-10-04 14:30:00,
2013-10-04 09:35:00,69.1,65.5,29.92,ESE,114,0.0,1.8,88,0.00,,---,0.00,VWS V14.01,2013-10-04 14:35:00,
2013-10-04 09:40:00,69.3,65.7,29.92,SW,229,0.0,1.8,88,0.00,,---,0.00,VWS V14.01,2013-10-04 14:40:00,
2013-10-04 09:45:00,69.6,66.0,29.92,SSE,148,0.0,1.8,88,0.00,,---,0.00,VWS V14.01,2013-10-04 14:45:00,
2013-10-04 09:50:00,70.0,66.4,29.92,SE,131,3.6,5.4,88,0.00,,---,0.00,VWS V14.01,2013-10-04 14:50:00,
2013-10-04 09:55:00,70.3,66.4,29.92,SE,127,1.8,5.4,87,0.00,,---,0.00,VWS V14.01,2013-10-04 14:55:00,
2013-10-04 10:00:00,70.6,66.4,29.93,SSW,212,0.0,3.6,86,0.00,,---,0.00,VWS V14.01,2013-10-04 15:00:00,
2013-10-04 10:05:00,70.7,66.5,29.92,ESE,112,0.0,5.4,86,0.00,,---,0.00,VWS V14.01,2013-10-04 15:05:00,
2013-10-04 10:10:00,70.9,66.4,29.92,SW,222,0.0,7.2,86,0.00,,---,0.00,VWS V14.01,2013-10-04 15:10:00,
2013-10-04 10:15:00,71.1,66.6,29.92,SW,219,3.6,5.4,86,0.00,,---,0.00,VWS V14.01,2013-10-04 15:15:00,
2013-10-04 10:17:00,71.1,66.6,29.92,SW,219,0.0,5.4,86,0.00,,---,0.00,VWS V14.01,2013-10-04 15:17:00,
2013-10-04 10:22:00,71.2,66.7,29.92,ESE,116,0.0,0.0,86,0.00,,---,0.00,VWS V14.01,2013-10-04 15:22:00,
2013-10-04 10:27:00,71.2,66.7,29.92,SE,139,0.0,0.0,86,0.00,,---,0.00,VWS V14.01,2013-10-04 15:27:00,
2013-10-04 10:32:00,71.3,66.8,29.92,ESE,117,1.8,1.8,86,0.00,,---,0.00,VWS V14.01,2013-10-04 15:32:00,
2013-10-04 10:37:00,71.3,66.8,29.91,SW,215,1.8,1.8,86,0.00,,---,0.00,VWS V14.01,2013-10-04 15:37:00,
2013-10-04 10:42:00,71.4,66.8,29.92,SSW,212,1.8,3.6,86,0.00,,---,0.00,VWS V14.01,2013-10-04 15:42:00,
2013-10-04 10:47:00,71.5,66.9,29.93,SSW,203,0.0,3.6,86,0.00,,---,0.00,VWS V14.01,2013-10-04 15:47:00,
2013-10-04 10:52:00,71.6,66.7,29.93,SSW,195,0.0,1.8,85,0.00,,---,0.00,VWS V14.01,2013-10-04 15:52:00,
2013-10-04 10:57:00,71.6,66.7,29.93,SSW,201,0.0,0.0,85,0.00,,---,0.00,VWS V14.01,2013-10-04 15:57:00,
2013-10-04 11:02:00,71.7,66.8,29.93,SSW,203,0.0,1.8,85,0.00,,---,0.00,VWS V14.01,2013-10-04 16:02:00,
2013-10-04 11:07:00,71.7,66.8,29.93,South,184,0.0,3.6,85,0.00,,---,0.00,VWS V14.01,2013-10-04 16:07:00,
2013-10-04 11:12:00,71.7,66.8,29.93,SW,220,0.0,0.0,85,0.00,,---,0.00,VWS V14.01,2013-10-04 16:12:00,
2013-10-04 11:17:00,71.7,66.8,29.94,SSW,208,0.0,0.0,85,0.00,,---,0.00,VWS V14.01,2013-10-04 16:17:00,
2013-10-04 11:22:00,71.7,66.8,29.94,SW,215,0.0,0.0,85,0.00,,---,0.00,VWS V14.01,2013-10-04 16:22:00,
2013-10-04 11:26:00,71.7,66.8,29.94,SW,215,0.0,0.0,85,0.00,,---,0.00,VWS V14.01,2013-10-04 16:26:00,
2013-10-04 11:31:00,71.7,66.8,29.95,SW,215,0.0,0.0,85,0.00,,---,0.00,VWS V14.01,2013-10-04 16:31:00,
2013-10-04 11:36:00,71.6,67.1,29.95,SW,215,0.0,0.0,86,0.00,,---,0.00,VWS V14.01,2013-10-04 16:36:00,
2013-10-04 11:41:00,71.6,67.1,29.96,SW,216,0.0,0.0,86,0.00,,---,0.00,VWS V14.01,2013-10-04 16:41:00,
2013-10-04 11:46:00,71.5,66.9,29.96,SW,215,0.0,0.0,86,0.00,,---,0.00,VWS V14.01,2013-10-04 16:46:00,
2013-10-04 11:51:00,71.4,66.8,29.97,SW,215,0.0,0.0,86,0.00,,---,0.00,VWS V14.01,2013-10-04 16:51:00,
2013-10-04 11:56:00,71.4,66.8,29.96,SW,215,0.0,0.0,86,0.00,,---,0.00,VWS V14.01,2013-10-04 16:56:00,
2013-10-04 12:01:00,71.3,66.8,29.96,SW,216,0.0,0.0,86,0.00,,---,0.00,VWS V14.01,2013-10-04 17:01:00,
2013-10-04 12:06:00,71.3,66.8,29.96,SW,215,0.0,0.0,86,0.00,,---,0.00,VWS V14.01,2013-10-04 17:06:00,
2013-10-04 12:11:00,71.3,66.8,29.96,SW,215,0.0,0.0,86,0.00,,---,0.00,VWS V14.01,2013-10-04 17:11:00,
2013-10-04 12:16:00,71.3,67.1,29.95,SW,215,0.0,0.0,86,0.00,,---,0.00,VWS V14.01,2013-10-04 17:16:00,
2013-10-04 12:21:00,71.3,67.1,29.95,SE,143,0.0,0.0,86,0.00,,---,0.00,VWS V14.01,2013-10-04 17:21:00,
2013-10-04 12:26:00,71.2,67.0,29.95,SE,143,0.0,0.0,86,0.00,,---,0.00,VWS V14.01,2013-10-04 17:26:00,
2013-10-04 12:31:00,71.1,66.9,29.95,SE,143,0.0,0.0,86,0.00,,---,0.00,VWS V14.01,2013-10-04 17:31:00,
2013-10-04 12:36:00,71.0,66.8,29.96,SE,144,0.0,0.0,86,0.00,,---,0.00,VWS V14.01,2013-10-04 17:36:00,
2013-10-04 13:01:00,71.1,66.9,29.96,SE,144,0.0,0.0,86,0.00,,---,0.00,VWS V14.01,2013-10-04 18:01:00,
2013-10-04 13:06:00,71.1,67.2,29.95,SE,144,0.0,0.0,87,0.00,,---,0.00,VWS V14.01,2013-10-04 18:06:00,
2013-10-04 13:11:00,71.0,67.1,29.95,ESE,121,0.0,3.6,87,0.00,,---,0.00,VWS V14.01,2013-10-04 18:11:00,
2013-10-04 13:16:00,71.0,67.1,29.94,NE,39,1.8,1.8,87,0.00,,---,0.00,VWS V14.01,2013-10-04 18:16:00,
2013-10-04 13:21:00,70.9,67.0,29.92,WSW,249,0.0,3.6,87,0.01,,---,0.01,VWS V14.01,2013-10-04 18:21:00,
2013-10-04 13:26:00,70.9,67.0,29.93,East,91,0.0,0.0,87,0.01,,---,0.01,VWS V14.01,2013-10-04 18:26:00,
2013-10-04 13:31:00,71.0,67.1,29.92,East,89,0.0,0.0,87,0.01,,---,0.01,VWS V14.01,2013-10-04 18:31:00,
2013-10-04 13:36:00,71.0,67.1,29.92,NNE,32,0.0,1.8,87,0.01,,---,0.01,VWS V14.01,2013-10-04 18:36:00,
2013-10-04 13:41:00,71.2,67.6,29.92,NNE,32,0.0,0.0,88,0.01,,---,0.01,VWS V14.01,2013-10-04 18:41:00,
2013-10-04 13:46:00,71.5,67.9,29.91,ENE,64,0.0,0.0,88,0.01,,---,0.01,VWS V14.01,2013-10-04 18:46:00,
2013-10-04 13:51:00,71.8,68.2,29.91,East,99,0.0,0.0,88,0.01,,---,0.01,VWS V14.01,2013-10-04 18:51:00,
2013-10-04 13:56:00,72.3,68.7,29.91,ESE,111,1.8,1.8,88,0.01,,---,0.01,VWS V14.01,2013-10-04 18:56:00,
2013-10-04 14:01:00,72.9,68.9,29.90,NNW,345,0.0,1.8,87,0.01,,---,0.01,VWS V14.01,2013-10-04 19:01:00,
2013-10-04 14:06:00,73.8,69.5,29.90,East,99,0.0,3.6,86,0.01,,---,0.01,VWS V14.01,2013-10-04 19:06:00,
2013-10-04 14:11:00,74.6,69.7,29.89,SE,132,5.4,5.4,85,0.01,,---,0.01,VWS V14.01,2013-10-04 19:11:00,
2013-10-04 14:16:00,75.2,69.6,29.89,ESE,112,1.8,9.0,83,0.01,,---,0.01,VWS V14.01,2013-10-04 19:16:00,
2013-10-04 14:21:00,75.8,69.5,29.89,East,86,7.2,7.2,81,0.00,,---,0.01,VWS V14.01,2013-10-04 19:21:00,
2013-10-04 14:26:00,76.1,69.5,29.89,SE,136,1.8,3.6,80,0.00,,---,0.01,VWS V14.01,2013-10-04 19:26:00,
2013-10-04 14:31:00,76.0,69.0,29.88,SE,134,3.6,3.6,79,0.00,,---,0.01,VWS V14.01,2013-10-04 19:31:00,
2013-10-04 14:36:00,76.0,68.7,29.89,ESE,112,7.2,7.2,78,0.00,,---,0.01,VWS V14.01,2013-10-04 19:36:00,
2013-10-04 14:41:00,76.1,68.8,29.89,East,98,0.0,3.6,78,0.00,,---,0.01,VWS V14.01,2013-10-04 19:41:00,
2013-10-04 14:46:00,76.3,69.3,29.89,SE,132,7.2,10.8,79,0.00,,---,0.01,VWS V14.01,2013-10-04 19:46:00,
2013-10-04 14:51:00,76.1,68.8,29.89,ESE,111,0.0,1.8,78,0.00,,---,0.01,VWS V14.01,2013-10-04 19:51:00,
2013-10-04 14:56:00,76.3,69.3,29.90,East,89,1.8,1.8,79,0.00,,---,0.01,VWS V14.01,2013-10-04 19:56:00,
2013-10-04 15:01:00,76.2,68.9,29.89,ESE,121,1.8,1.8,78,0.00,,---,0.01,VWS V14.01,2013-10-04 20:01:00,
2013-10-04 15:06:00,76.4,69.1,29.90,SSW,211,1.8,5.4,78,0.00,,---,0.01,VWS V14.01,2013-10-04 20:06:00,
2013-10-04 15:11:00,76.6,69.3,29.89,South,184,3.6,5.4,78,0.00,,---,0.01,VWS V14.01,2013-10-04 20:11:00,
2013-10-04 15:16:00,76.8,69.5,29.89,NNE,27,3.6,3.6,78,0.00,,---,0.01,VWS V14.01,2013-10-04 20:16:00,
2013-10-04 15:21:00,76.7,69.4,29.89,ESE,114,1.8,3.6,78,0.00,,---,0.01,VWS V14.01,2013-10-04 20:21:00,
2013-10-04 15:26:00,76.4,69.1,29.89,NE,34,3.6,5.4,78,0.00,,---,0.01,VWS V14.01,2013-10-04 20:26:00,
2013-10-04 15:31:00,76.3,69.0,29.89,ESE,110,0.0,0.0,78,0.00,,---,0.01,VWS V14.01,2013-10-04 20:31:00,
2013-10-04 15:36:00,76.3,69.3,29.88,SE,124,1.8,1.8,79,0.00,,---,0.01,VWS V14.01,2013-10-04 20:36:00,
2013-10-04 15:41:00,76.4,69.1,29.88,ESE,107,0.0,0.0,78,0.00,,---,0.01,VWS V14.01,2013-10-04 20:41:00,
2013-10-04 15:46:00,76.5,69.2,29.88,ESE,107,0.0,1.8,78,0.00,,---,0.01,VWS V14.01,2013-10-04 20:46:00,
2013-10-04 15:51:00,76.5,69.2,29.89,ESE,122,0.0,0.0,78,0.00,,---,0.01,VWS V14.01,2013-10-04 20:51:00,
2013-10-04 15:56:00,76.6,69.3,29.89,ESE,108,0.0,0.0,78,0.00,,---,0.01,VWS V14.01,2013-10-04 20:56:00,
2013-10-04 16:01:00,76.6,69.3,29.89,NNW,347,0.0,0.0,78,0.00,,---,0.01,VWS V14.01,2013-10-04 21:01:00,
2013-10-04 16:06:00,76.5,68.8,29.89,ESE,112,0.0,5.4,77,0.00,,---,0.01,VWS V14.01,2013-10-04 21:06:00,
2013-10-04 16:11:00,76.6,69.3,29.89,NNE,16,3.6,5.4,78,0.00,,---,0.01,VWS V14.01,2013-10-04 21:11:00,
2013-10-04 16:16:00,76.5,68.5,29.88,ESE,107,0.0,1.8,76,0.00,,---,0.01,VWS V14.01,2013-10-04 21:16:00,
2013-10-04 16:21:00,76.6,68.6,29.88,SSE,153,1.8,3.6,76,0.00,,---,0.01,VWS V14.01,2013-10-04 21:21:00,
2013-10-04 16:26:00,76.7,67.9,29.88,SE,142,0.0,0.0,74,0.00,,---,0.01,VWS V14.01,2013-10-04 21:26:00,
2013-10-04 16:31:00,76.8,67.7,29.88,SE,145,0.0,1.8,73,0.00,,---,0.01,VWS V14.01,2013-10-04 21:31:00,
2013-10-04 16:36:00,76.7,66.8,29.87,SSW,198,1.8,3.6,72,0.00,,---,0.01,VWS V14.01,2013-10-04 21:36:00,
2013-10-04 16:41:00,76.7,66.5,29.87,South,180,0.0,3.6,71,0.00,,---,0.01,VWS V14.01,2013-10-04 21:41:00,
2013-10-04 16:46:00,76.5,65.9,29.87,SE,142,3.6,3.6,70,0.00,,---,0.01,VWS V14.01,2013-10-04 21:46:00,
2013-10-04 16:51:00,76.3,66.1,29.87,East,93,1.8,5.4,71,0.00,,---,0.01,VWS V14.01,2013-10-04 21:51:00,
2013-10-04 16:56:00,76.3,66.5,29.87,ESE,117,0.0,5.4,72,0.00,,---,0.01,VWS V14.01,2013-10-04 21:56:00,
2013-10-04 17:01:00,76.5,67.0,29.87,SE,135,0.0,3.6,73,0.00,,---,0.01,VWS V14.01,2013-10-04 22:01:00,
2013-10-04 17:06:00,76.7,67.2,29.87,East,98,5.4,5.4,73,0.00,,---,0.01,VWS V14.01,2013-10-04 22:06:00,
2013-10-04 17:11:00,76.7,67.2,29.87,ESE,113,0.0,0.0,73,0.00,,---,0.01,VWS V14.01,2013-10-04 22:11:00,
2013-10-04 17:16:00,76.6,66.8,29.87,SE,124,0.0,3.6,72,0.00,,---,0.01,VWS V14.01,2013-10-04 22:16:00,
2013-10-04 17:21:00,76.6,66.8,29.87,ESE,110,0.0,0.0,72,0.00,,---,0.01,VWS V14.01,2013-10-04 22:21:00,
2013-10-04 17:26:00,76.5,67.0,29.87,ESE,118,0.0,0.0,73,0.00,,---,0.01,VWS V14.01,2013-10-04 22:26:00,
2013-10-04 17:31:00,76.3,66.8,29.87,ESE,113,0.0,0.0,73,0.00,,---,0.01,VWS V14.01,2013-10-04 22:31:00,
2013-10-04 17:36:00,76.2,66.7,29.87,SE,129,0.0,0.0,73,0.00,,---,0.01,VWS V14.01,2013-10-04 22:36:00,
2013-10-04 17:41:00,76.1,66.6,29.86,ESE,117,0.0,0.0,73,0.00,,---,0.01,VWS V14.01,2013-10-04 22:41:00,
2013-10-04 17:46:00,76.1,66.6,29.86,ESE,114,0.0,0.0,73,0.00,,---,0.01,VWS V14.01,2013-10-04 22:46:00,
2013-10-04 17:51:00,76.1,66.6,29.86,ESE,108,1.8,3.6,73,0.00,,---,0.01,VWS V14.01,2013-10-04 22:51:00,
2013-10-04 17:56:00,76.0,66.9,29.87,ESE,121,1.8,1.8,73,0.00,,---,0.01,VWS V14.01,2013-10-04 22:56:00,
2013-10-04 18:01:00,75.7,66.6,29.87,SE,124,0.0,0.0,73,0.00,,---,0.01,VWS V14.01,2013-10-04 23:01:00,
2013-10-04 18:06:00,75.4,66.7,29.87,ESE,117,0.0,0.0,74,0.00,,---,0.01,VWS V14.01,2013-10-04 23:06:00,
2013-10-04 18:11:00,75.1,66.4,29.87,NW,306,0.0,0.0,74,0.00,,---,0.01,VWS V14.01,2013-10-04 23:11:00,
2013-10-04 18:16:00,74.7,66.4,29.87,NW,307,0.0,0.0,75,0.00,,---,0.01,VWS V14.01,2013-10-04 23:16:00,
2013-10-04 18:21:00,74.3,66.3,29.87,North,358,0.0,0.0,76,0.00,,---,0.01,VWS V14.01,2013-10-04 23:21:00,
2013-10-04 18:26:00,73.9,66.3,29.87,North,359,0.0,0.0,77,0.00,,---,0.01,VWS V14.01,2013-10-04 23:26:00,
2013-10-04 18:31:00,73.5,65.9,29.87,North,359,0.0,0.0,77,0.00,,---,0.01,VWS V14.01,2013-10-04 23:31:00,
2013-10-04 18:36:00,73.1,65.9,29.87,North,358,0.0,0.0,78,0.00,,---,0.01,VWS V14.01,2013-10-04 23:36:00,
2013-10-04 18:41:00,72.7,65.8,29.87,NNE,22,0.0,0.0,79,0.00,,---,0.01,VWS V14.01,2013-10-04 23:41:00,
2013-10-04 18:46:00,72.3,65.8,29.87,NNE,22,0.0,0.0,80,0.00,,---,0.01,VWS V14.01,2013-10-04 23:46:00,
2013-10-04 18:51:00,72.0,65.8,29.87,NNE,22,0.0,0.0,81,0.00,,---,0.01,VWS V14.01,2013-10-04 23:51:00,
2013-10-04 18:56:00,71.6,65.8,29.87,NNE,30,0.0,0.0,82,0.00,,---,0.01,VWS V14.01,2013-10-04 23:56:00,
2013-10-04 19:01:00,71.3,65.5,29.87,North,6,0.0,0.0,82,0.00,,---,0.01,VWS V14.01,2013-10-05 00:01:00,
2013-10-04 19:06:00,71.1,65.6,29.87,WNW,300,0.0,0.0,83,0.00,,---,0.01,VWS V14.01,2013-10-05 00:06:00,
2013-10-04 19:11:00,71.0,65.5,29.87,NNW,342,1.8,1.8,83,0.00,,---,0.01,VWS V14.01,2013-10-05 00:11:00,
2013-10-04 19:16:00,70.9,65.4,29.87,NNW,341,0.0,0.0,83,0.00,,---,0.01,VWS V14.01,2013-10-05 00:16:00,
2013-10-04 19:21:00,70.6,65.1,29.87,NNW,348,0.0,0.0,83,0.00,,---,0.01,VWS V14.01,2013-10-05 00:21:00,
2013-10-04 19:26:00,70.5,65.0,29.87,West,276,0.0,0.0,83,0.00,,---,0.01,VWS V14.01,2013-10-05 00:26:00,
2013-10-04 19:31:00,70.4,64.9,29.87,North,354,0.0,0.0,83,0.00,,---,0.01,VWS V14.01,2013-10-05 00:31:00,
2013-10-04 19:36:00,70.2,64.7,29.87,ESE,107,0.0,0.0,83,0.00,,---,0.01,VWS V14.01,2013-10-05 00:36:00,
2013-10-04 19:41:00,70.1,64.6,29.87,ESE,108,0.0,0.0,83,0.00,,---,0.01,VWS V14.01,2013-10-05 00:41:00,
2013-10-04 19:46:00,70.0,64.8,29.87,East,90,0.0,0.0,84,0.00,,---,0.01,VWS V14.01,2013-10-05 00:46:00,
2013-10-04 19:51:00,70.1,64.9,29.87,ESE,107,0.0,0.0,84,0.00,,---,0.01,VWS V14.01,2013-10-05 00:51:00,
2013-10-04 19:56:00,70.1,64.9,29.88,ESE,102,0.0,0.0,84,0.00,,---,0.01,VWS V14.01,2013-10-05 00:56:00,
2013-10-04 20:01:00,70.1,64.9,29.88,NE,49,0.0,1.8,84,0.00,,---,0.01,VWS V14.01,2013-10-05 01:01:00,
2013-10-04 20:06:00,70.1,65.3,29.88,NE,49,0.0,0.0,85,0.00,,---,0.01,VWS V14.01,2013-10-05 01:06:00,
2013-10-04 20:11:00,70.0,65.2,29.88,East,97,0.0,0.0,85,0.00,,---,0.01,VWS V14.01,2013-10-05 01:11:00,
2013-10-04 20:16:00,70.0,65.5,29.88,ESE,121,0.0,0.0,86,0.00,,---,0.01,VWS V14.01,2013-10-05 01:16:00,
2013-10-04 20:21:00,70.0,65.5,29.89,ESE,120,0.0,1.8,86,0.00,,---,0.01,VWS V14.01,2013-10-05 01:21:00,
2013-10-04 20:26:00,70.1,65.6,29.89,ESE,108,0.0,0.0,86,0.00,,---,0.01,VWS V14.01,2013-10-05 01:26:00,
2013-10-04 20:31:00,70.0,65.5,29.88,ESE,107,0.0,1.8,86,0.00,,---,0.01,VWS V14.01,2013-10-05 01:31:00,
2013-10-04 20:36:00,70.0,65.8,29.88,East,90,1.8,1.8,86,0.00,,---,0.01,VWS V14.01,2013-10-05 01:36:00,
2013-10-04 20:41:00,69.9,65.7,29.88,East,90,0.0,0.0,86,0.00,,---,0.01,VWS V14.01,2013-10-05 01:41:00,
2013-10-04 20:46:00,69.9,65.7,29.88,ESE,114,0.0,0.0,86,0.00,,---,0.01,VWS V14.01,2013-10-05 01:46:00,
2013-10-04 20:51:00,69.7,65.5,29.88,ESE,122,0.0,1.8,86,0.00,,---,0.01,VWS V14.01,2013-10-05 01:51:00,
2013-10-04 20:56:00,69.7,65.5,29.88,ESE,120,1.8,1.8,86,0.00,,---,0.01,VWS V14.01,2013-10-05 01:56:00,
2013-10-04 21:01:00,69.7,65.5,29.88,SE,126,0.0,0.0,86,0.00,,---,0.01,VWS V14.01,2013-10-05 02:01:00,
2013-10-04 21:06:00,69.6,65.4,29.88,ESE,107,0.0,1.8,86,0.00,,---,0.01,VWS V14.01,2013-10-05 02:06:00,
2013-10-04 21:11:00,69.5,65.6,29.87,ESE,104,1.8,3.6,87,0.00,,---,0.01,VWS V14.01,2013-10-05 02:11:00,
2013-10-04 21:16:00,69.5,65.6,29.88,SE,136,0.0,1.8,87,0.00,,---,0.01,VWS V14.01,2013-10-05 02:16:00,
2013-10-04 21:21:00,69.4,65.5,29.87,NNE,15,0.0,1.8,87,0.00,,---,0.01,VWS V14.01,2013-10-05 02:21:00,
2013-10-04 21:26:00,69.4,65.5,29.87,East,94,0.0,0.0,87,0.00,,---,0.01,VWS V14.01,2013-10-05 02:26:00,
2013-10-04 21:31:00,69.3,65.4,29.87,ESE,115,0.0,0.0,87,0.00,,---,0.01,VWS V14.01,2013-10-05 02:31:00,
2013-10-04 21:36:00,69.2,65.3,29.87,ESE,118,0.0,0.0,87,0.00,,---,0.01,VWS V14.01,2013-10-05 02:36:00,
2013-10-04 21:41:00,69.1,65.2,29.87,ESE,108,0.0,0.0,87,0.00,,---,0.01,VWS V14.01,2013-10-05 02:41:00,
2013-10-04 21:46:00,69.1,65.2,29.87,SE,130,1.8,1.8,87,0.00,,---,0.01,VWS V14.01,2013-10-05 02:46:00,
2013-10-04 21:51:00,69.0,65.1,29.87,ESE,123,0.0,0.0,87,0.00,,---,0.01,VWS V14.01,2013-10-05 02:51:00,
2013-10-04 21:56:00,68.9,65.0,29.87,SE,124,0.0,0.0,87,0.00,,---,0.01,VWS V14.01,2013-10-05 02:56:00,
2013-10-04 22:01:00,68.9,65.0,29.87,SE,124,0.0,0.0,87,0.00,,---,0.01,VWS V14.01,2013-10-05 03:01:00,
2013-10-04 22:06:00,68.9,65.0,29.87,ESE,114,0.0,0.0,87,0.00,,---,0.01,VWS V14.01,2013-10-05 03:06:00,
2013-10-04 22:11:00,68.9,65.0,29.87,ESE,115,0.0,0.0,87,0.00,,---,0.01,VWS V14.01,2013-10-05 03:11:00,
2013-10-04 22:15:00,68.9,64.7,29.87,ESE,108,0.0,0.0,86,0.00,,---,0.01,VWS V14.01,2013-10-05 03:15:00,
2013-10-04 22:20:00,69.1,64.9,29.87,ESE,115,0.0,0.0,86,0.00,,---,0.01,VWS V14.01,2013-10-05 03:20:00,
2013-10-04 22:25:00,69.3,65.1,29.87,SE,142,0.0,0.0,86,0.00,,---,0.01,VWS V14.01,2013-10-05 03:25:00,
2013-10-04 22:30:00,69.4,64.9,29.87,ESE,117,0.0,0.0,86,0.00,,---,0.01,VWS V14.01,2013-10-05 03:30:00,
2013-10-04 22:35:00,69.6,65.1,29.87,SW,218,0.0,0.0,86,0.00,,---,0.01,VWS V14.01,2013-10-05 03:35:00,
2013-10-04 22:40:00,69.9,65.1,29.88,South,189,0.0,0.0,85,0.00,,---,0.01,VWS V14.01,2013-10-05 03:40:00,
2013-10-04 22:45:00,70.2,65.0,29.88,ESE,105,0.0,0.0,84,0.00,,---,0.01,VWS V14.01,2013-10-05 03:45:00,
2013-10-04 22:50:00,70.5,65.3,29.88,SW,233,1.8,1.8,84,0.00,,---,0.01,VWS V14.01,2013-10-05 03:50:00,
2013-10-04 22:55:00,70.8,65.3,29.88,East,96,1.8,3.6,83,0.00,,---,0.01,VWS V14.01,2013-10-05 03:55:00,
2013-10-04 23:00:00,71.1,65.6,29.88,ESE,105,3.6,3.6,83,0.00,,---,0.01,VWS V14.01,2013-10-05 04:00:00,
2013-10-04 23:01:00,71.1,65.6,29.88,SE,125,5.4,5.4,83,0.00,,---,0.01,VWS V14.01,2013-10-05 04:01:00,
2013-10-04 23:06:00,71.4,65.6,29.88,SW,232,1.8,5.4,82,0.00,,---,0.01,VWS V14.01,2013-10-05 04:06:00,
2013-10-04 23:11:00,71.6,65.8,29.88,South,170,1.8,3.6,82,0.00,,---,0.01,VWS V14.01,2013-10-05 04:11:00,
2013-10-04 23:16:00,71.9,65.7,29.88,ESE,109,1.8,1.8,81,0.00,,---,0.01,VWS V14.01,2013-10-05 04:16:00,
2013-10-04 23:21:00,72.1,65.9,29.88,WSW,238,5.4,5.4,81,0.00,,---,0.01,VWS V14.01,2013-10-05 04:21:00,
2013-10-04 23:26:00,72.2,66.0,29.88,SW,217,1.8,9.0,81,0.00,,---,0.01,VWS V14.01,2013-10-05 04:26:00,
2013-10-04 23:31:00,72.3,65.8,29.88,SSW,211,0.0,3.6,80,0.00,,---,0.01,VWS V14.01,2013-10-05 04:31:00,
2013-10-04 23:36:00,72.4,65.9,29.88,SW,225,1.8,1.8,80,0.00,,---,0.01,VWS V14.01,2013-10-05 04:36:00,
2013-10-04 23:41:00,72.4,65.9,29.88,SSE,167,0.0,5.4,80,0.00,,---,0.01,VWS V14.01,2013-10-05 04:41:00,
2013-10-04 23:46:00,72.4,65.9,29.88,East,97,0.0,0.0,80,0.00,,---,0.01,VWS V14.01,2013-10-05 04:46:00,
2013-10-04 23:51:00,72.3,66.1,29.88,SW,215,1.8,3.6,81,0.00,,---,0.01,VWS V14.01,2013-10-05 04:51:00,
2013-10-04 23:56:00,72.3,66.1,29.88,SSW,211,0.0,0.0,81,0.00,,---,0.01,VWS V14.01,2013-10-05 04:56:00,